Find Starlink 35710

NORAD ID: 66212 Int'l Des: 2025-244 Owner: SPXS Country: US Constellation: starlink operational
LEOCIRCULAR

当前视图

正在加载3D地球...

About Starlink 35710

Starlink 35710 (NORAD 66212) is a starlink constellation satellite (v2 mini) launched Oct 28, 2025 by SPXS of US. It operates in LEO, CIRCULAR orbit with a mass of 575.00 kg.

即将过境

Passes for default location (London). Set your location on the main map for personalized predictions.

高度历史

Loading altitude history...

两行轨道根数

1 66212U 25244G 26263.38043149 .00014893 00000-0 45118-3 0 9992
2 66212 53.1590 44.4596 0001309 92.2397 267.8755 15.34390414 51481
Epoch: Sep 20, 2026 • Age: 14 hours

当前状态

高度 470.5 km
远地点 / 近地点 N/A
速度 7.63 km/s
星下点 -25.17°S, 35.49°E
发射日期 Oct 28, 2025
运行时间 0.8 years
类型 internet

技术详情

分类 Payload
质量 575.00 kg
干质量 530.00 kg
长度 0.30 m
跨度 29.00 m
形状 ? Box + pan
制造商 SPXS
平台类型 Starlink V2MO
阶段状态 In Orbit
所有者/国家 SPXS/US

Most Searched